ROMMA est une association bénévole à but non lucratif. Votre soutien est indispensable : ADHERER à ROMMA ou FAIRE un DON

Chambon - (38, Isère)

Oisans (2460 m)   Longitude: 06° 10' 42" E   Latitude: 45° 01' 32" N Station partenaire n°803
 

Détail journalier du     <<     >>

Température Humidité Vent Dir Rafale Dir. rafale Neige 1 Neige 2
Heure (°C) (%) (km/h) (km/h) (cm) (cm)
01:00 -9.3845ENE12ENE066
02:00 -9.6943S7S066
03:00 -9.5873NE7E065
04:00 -10.3946E16SO065
05:00 -9.9947NE15NE064
06:00 -10.5964NNE12NNE064
07:00 -10.6961OSO7OSO064
08:00 -10.1942N10N064
09:00 -10.0932ESE9ESE064
10:00 -8.2845ENE12ENE063
11:00 -5.0803ENE9ENE061
12:00 -5.1782NE6S061
13:00 -6.1753NE6S061
14:00 -3.8804S7S060
15:00 -6.4864SO9O061
16:00 -4.6883O9O060
17:00 -8.4883ENE7ENE061
18:00 -8.6744N11N061
19:00 -8.2714NO10NNO061
20:00 -7.9665NNE10NNE061
21:00 -7.2599NNE17NNO061
22:00 -8.1544SSO18SSO061
23:00 -7.4503SSE23SO060
minuit -7.6497SSE30SSE060

Graphique du 09-11-2019

 

Serveur OMMA